When you browse on this site, cookies collect data to enhance your experience and personalize the content and advertising you see.
Visit our Privacy Policy to learn more. By continuing to use the site, you agree to this use of cookies and data.
  • In Hungary
  • List of Countries
  • For 7 days
  • Water Temperature
  • Weather Map
  • News
  • Weather Widgets
  • user-avatar
    Login

    Hourly Weather Jaunpur

    Today, 18 November, Monday

    Time Temperature Precipitation Wind Pressure Humidity
    00:00 +23°C° 0 mm 2 mps 752 mmHg 53%
    01:00 +22°C° 0 mm 3 mps 752 mmHg 54%
    02:00 +21°C° 0 mm 3 mps 752 mmHg 55%
    03:00 +21°C° 0 mm 3 mps 751 mmHg 57%
    04:00 +21°C° 0 mm 3 mps 752 mmHg 57%
    05:00 +20°C° 0 mm 3 mps 752 mmHg 58%
    06:00 +20°C° 0 mm 3 mps 752 mmHg 58%
    07:00 +21°C° 0 mm 3 mps 753 mmHg 53%
    08:00 +22°C° 0 mm 3 mps 753 mmHg 47%
    09:00 +25°C° 0 mm 4 mps 754 mmHg 41%
    10:00 +26°C° 0 mm 4 mps 754 mmHg 37%
    11:00 +28°C° 0 mm 4 mps 753 mmHg 32%
    12:00 +30°C° 0 mm 4 mps 753 mmHg 28%
    13:00 +30°C° 0 mm 5 mps 752 mmHg 27%
    14:00 +32°C° 0 mm 5 mps 752 mmHg 26%
    15:00 +32°C° 0 mm 5 mps 751 mmHg 26%
    16:00 +29°C° 0 mm 4 mps 751 mmHg 29%
    17:00 +28°C° 0 mm 3 mps 751 mmHg 33%
    18:00 +26°C° 0 mm 2 mps 751 mmHg 36%
    19:00 +25°C° 0 mm 2 mps 751 mmHg 38%
    20:00 +25°C° 0 mm 2 mps 752 mmHg 40%
    21:00 +24°C° 0 mm 2 mps 752 mmHg 42%
    22:00 +24°C° 0 mm 2 mps 752 mmHg 43%
    23:00 +23°C° 0 mm 2 mps 752 mmHg 45%

    Tomorrow, 19 November, Tuesday

    Time Temperature Precipitation Wind Pressure Humidity
    00:00 +23°C° 0 mm 2 mps 752 mmHg 46%
    01:00 +21°C° 0 mm 2 mps 752 mmHg 48%
    02:00 +21°C° 0 mm 2 mps 752 mmHg 49%
    03:00 +20°C° 0 mm 2 mps 751 mmHg 50%
    04:00 +20°C° 0 mm 2 mps 751 mmHg 51%
    05:00 +20°C° 0 mm 2 mps 751 mmHg 53%
    06:00 +19°C° 0 mm 2 mps 751 mmHg 54%
    07:00 +20°C° 0 mm 2 mps 752 mmHg 51%
    08:00 +23°C° 0 mm 2 mps 753 mmHg 49%
    09:00 +24°C° 0 mm 2 mps 753 mmHg 46%
    10:00 +25°C° 0 mm 2 mps 753 mmHg 42%
    11:00 +27°C° 0 mm 3 mps 753 mmHg 37%
    12:00 +29°C° 0 mm 3 mps 753 mmHg 33%
    13:00 +29°C° 0 mm 3 mps 752 mmHg 31%
    14:00 +29°C° 0 mm 3 mps 752 mmHg 30%
    15:00 +30°C° 0 mm 3 mps 751 mmHg 29%
    16:00 +28°C° 0 mm 3 mps 751 mmHg 32%
    17:00 +27°C° 0 mm 2 mps 751 mmHg 34%
    18:00 +25°C° 0 mm 1 mps 751 mmHg 37%
    19:00 +25°C° 0 mm 1 mps 751 mmHg 39%
    20:00 +24°C° 0 mm 1 mps 752 mmHg 40%
    21:00 +23°C° 0 mm 1 mps 752 mmHg 41%
    22:00 +23°C° 0 mm 1 mps 752 mmHg 42%
    23:00 +23°C° 0 mm 1 mps 752 mmHg 43%

    Day after tomorrow, 20 November, Wednesday

    Time Temperature Precipitation Wind Pressure Humidity
    00:00 +22°C° 0 mm 1 mps 752 mmHg 44%
    01:00 +22°C° 0 mm 1 mps 752 mmHg 45%
    02:00 +21°C° 0 mm 1 mps 752 mmHg 46%
    03:00 +21°C° 0 mm 1 mps 752 mmHg 47%
    04:00 +21°C° 0 mm 1 mps 752 mmHg 48%
    05:00 +20°C° 0 mm 1 mps 752 mmHg 49%
    06:00 +20°C° 0 mm 1 mps 752 mmHg 50%
    07:00 +21°C° 0 mm 1 mps 752 mmHg 47%
    08:00 +22°C° 0 mm 1 mps 753 mmHg 45%
    09:00 +24°C° 0 mm 1 mps 754 mmHg 42%
    10:00 +26°C° 0 mm 1 mps 754 mmHg 38%
    11:00 +27°C° 0 mm 1 mps 753 mmHg 34%
    12:00 +29°C° 0 mm 1 mps 753 mmHg 29%
    13:00 +29°C° 0 mm 1 mps 752 mmHg 28%
    14:00 +30°C° 0 mm 1 mps 752 mmHg 26%
    15:00 +30°C° 0 mm 1 mps 751 mmHg 24%
    16:00 +29°C° 0 mm 1 mps 751 mmHg 26%
    17:00 +27°C° 0 mm 1 mps 751 mmHg 29%
    18:00 +26°C° 0 mm 1 mps 751 mmHg 31%
    19:00 +25°C° 0 mm 1 mps 752 mmHg 33%
    20:00 +25°C° 0 mm 1 mps 753 mmHg 34%
    21:00 +24°C° 0 mm 1 mps 753 mmHg 35%
    22:00 +24°C° 0 mm 1 mps 753 mmHg 36%
    23:00 +23°C° 0 mm 1 mps 753 mmHg 37%

    21 November, Thursday

    Time Temperature Precipitation Wind Pressure Humidity
    00:00 +23°C° 0 mm 1 mps 753 mmHg 38%
    01:00 +20°C° 0 mm 0 mps 753 mmHg 40%
    02:00 +20°C° 0 mm 0 mps 753 mmHg 41%
    03:00 +19°C° 0 mm 0 mps 753 mmHg 42%
    04:00 +19°C° 0 mm 0 mps 753 mmHg 43%
    05:00 +18°C° 0 mm 0 mps 753 mmHg 45%
    06:00 +18°C° 0 mm 0 mps 753 mmHg 46%
    07:00 +19°C° 0 mm 0 mps 753 mmHg 44%
    08:00 +21°C° 0 mm 0 mps 754 mmHg 41%
    09:00 +22°C° 0 mm 0 mps 755 mmHg 39%
    10:00 +24°C° 0 mm 0 mps 754 mmHg 35%
    11:00 +26°C° 0 mm 0 mps 754 mmHg 32%
    12:00 +27°C° 0 mm 0 mps 754 mmHg 29%
    13:00 +28°C° 0 mm 0 mps 753 mmHg 28%
    14:00 +30°C° 0 mm 1 mps 753 mmHg 27%
    15:00 +30°C° 0 mm 1 mps 752 mmHg 26%
    16:00 +29°C° 0 mm 1 mps 752 mmHg 29%
    17:00 +27°C° 0 mm 1 mps 752 mmHg 32%
    18:00 +26°C° 0 mm 1 mps 752 mmHg 35%
    19:00 +25°C° 0 mm 1 mps 752 mmHg 36%
    20:00 +25°C° 0 mm 1 mps 753 mmHg 37%
    21:00 +24°C° 0 mm 1 mps 753 mmHg 38%
    22:00 +24°C° 0 mm 1 mps 753 mmHg 39%
    23:00 +23°C° 0 mm 1 mps 753 mmHg 40%

    22 November, Friday

    Time Temperature Precipitation Wind Pressure Humidity
    00:00 +23°C° 0 mm 1 mps 753 mmHg 41%
    01:00 +22°C° 0 mm 1 mps 753 mmHg 43%
    02:00 +22°C° 0 mm 1 mps 753 mmHg 44%
    03:00 +22°C° 0 mm 1 mps 753 mmHg 46%
    04:00 +21°C° 0 mm 1 mps 753 mmHg 47%
    05:00 +21°C° 0 mm 1 mps 753 mmHg 48%
    06:00 +20°C° 0 mm 1 mps 753 mmHg 50%
    07:00 +22°C° 0 mm 1 mps 754 mmHg 47%
    08:00 +23°C° 0 mm 1 mps 754 mmHg 45%
    09:00 +24°C° 0 mm 1 mps 755 mmHg 42%
    10:00 +26°C° 0 mm 1 mps 754 mmHg 38%
    11:00 +27°C° 0 mm 1 mps 754 mmHg 34%
    12:00 +29°C° 0 mm 1 mps 754 mmHg 30%
    13:00 +30°C° 0 mm 2 mps 753 mmHg 28%
    14:00 +30°C° 0 mm 2 mps 752 mmHg 26%
    15:00 +31°C° 0 mm 2 mps 752 mmHg 24%
    16:00 +29°C° 0 mm 2 mps 752 mmHg 26%
    17:00 +28°C° 0 mm 2 mps 752 mmHg 29%
    18:00 +26°C° 0 mm 1 mps 752 mmHg 32%
    19:00 +25°C° 0 mm 1 mps 752 mmHg 33%
    20:00 +25°C° 0 mm 1 mps 752 mmHg 34%
    21:00 +24°C° 0 mm 1 mps 753 mmHg 35%
    22:00 +23°C° 0 mm 1 mps 753 mmHg 36%
    23:00 +23°C° 0 mm 1 mps 753 mmHg 37%

    23 November, Saturday

    Time Temperature Precipitation Wind Pressure Humidity
    00:00 +22°C° 0 mm 1 mps 753 mmHg 38%
    01:00 +22°C° 0 mm 1 mps 753 mmHg 39%
    02:00 +21°C° 0 mm 1 mps 752 mmHg 39%
    03:00 +21°C° 0 mm 1 mps 752 mmHg 40%
    04:00 +21°C° 0 mm 1 mps 752 mmHg 41%
    05:00 +20°C° 0 mm 1 mps 752 mmHg 41%
    06:00 +20°C° 0 mm 1 mps 753 mmHg 41%
    07:00 +21°C° 0 mm 1 mps 753 mmHg 39%
    08:00 +22°C° 0 mm 1 mps 753 mmHg 37%
    09:00 +23°C° 0 mm 1 mps 754 mmHg 35%
    10:00 +25°C° 0 mm 2 mps 754 mmHg 32%
    11:00 +27°C° 0 mm 2 mps 754 mmHg 29%
    12:00 +29°C° 0 mm 3 mps 753 mmHg 25%
    13:00 +30°C° 0 mm 3 mps 753 mmHg 25%
    14:00 +30°C° 0 mm 3 mps 752 mmHg 25%
    15:00 +31°C° 0 mm 3 mps 751 mmHg 24%
    16:00 +29°C° 0 mm 3 mps 751 mmHg 28%
    17:00 +28°C° 0 mm 2 mps 751 mmHg 32%
    18:00 +26°C° 0 mm 2 mps 751 mmHg 36%
    19:00 +26°C° 0 mm 2 mps 751 mmHg 37%
    20:00 +25°C° 0 mm 2 mps 752 mmHg 39%
    21:00 +24°C° 0 mm 2 mps 752 mmHg 41%
    22:00 +24°C° 0 mm 2 mps 752 mmHg 42%
    23:00 +23°C° 0 mm 2 mps 752 mmHg 43%
    Show more